Location: Homer
(59.6430°N, 151.5480°W)
Time: 07:20:42
(UTC-08:00)

Daily predictions for brighter satellites

Satellite Brightness Start Highest point End
(mag) Time Altitude Azimuth Time Altitude Azimuth Time Altitude Azimuth
Cosmos 1680 Rocket 3.7 19:07:14 10° SW 19:12:31 83° WNW 19:17:48 10° NNE
CORIOLIS 4.2 19:07:33 10° SSE 19:12:59 86° ENE 19:18:29 10° NNW
Cosmos 2151 3.0 19:10:14 10° NNW 19:14:34 84° ENE 19:18:51 10° SSE
NOSS 0 Rocket 4.0 19:10:51 10° NW 19:17:05 78° NE 19:23:16 10° SE
AQUARIUS 4.3 19:13:14 10° SSE 19:17:46 83° WSW 19:22:19 10° NNW
NOSS 2-1 (E) 4.0 19:14:31 10° W 19:18:47 67° NNW 19:24:24 10° ENE
Cosmos 2341 Rocket 4.2 19:15:39 10° SSW 19:21:59 85° WNW 19:28:25 10° NNE
COSMO-SKYMED 1 3.7 19:20:02 10° NE 19:23:31 22° E 19:26:57 10° SE
Cosmos 1833 Rocket 3.6 19:18:09 10° WSW 19:23:34 47° NW 19:29:01 10° NE
Cosmos 1331 Rocket 4.1 19:21:17 10° NNW 19:26:31 59° NE 19:31:40 10° SE
Meteor 1-28 Rocket 3.9 19:24:00 10° NNE 19:27:30 33° E 19:30:57 10° SSE
Aureole 2 Rocket 2.8 19:26:37 10° NNW 19:30:27 86° WSW 19:34:29 10° SSE
Cosmos 1805 Rocket 3.7 19:27:52 10° N 19:32:11 51° ENE 19:36:29 10° SSE
Ariane Rocket 3.9 19:28:32 10° S 19:33:33 56° WSW 19:38:37 10° NNW
NOAA 12 4.2 19:28:44 10° SE 19:33:56 57° ENE 19:39:11 10° NNW
Cosmos 1470 4.1 19:30:46 10° SW 19:34:36 44° WNW 19:38:25 10° N
Cosmos 2219 Rocket 2.4 19:30:21 10° NW 19:35:59 79° SW 19:41:36 10° SSE
Cosmos 1626 3.3 19:32:34 10° NNW 19:36:12 48° W 19:39:49 10° S
Cosmos-2242 3.2 19:32:51 10° SSW 19:37:07 77° WNW 19:41:25 10° NNE
MOS 1 4.3 19:31:32 10° SSE 19:37:14 82° ENE 19:42:59 10° NNW
Cosmos 1461 2.9 19:33:26 10° SW 19:37:37 81° SE 19:42:03 10° ENE
SL-08 R/B 4.4 19:32:08 10° S 19:38:12 69° E 19:44:18 10° NNE
Lacrosse 4 Rocket 2.9 19:34:33 10° WNW 19:38:25 29° NNW 19:42:12 10° NE
CZ-4 R/B 1.9 19:34:44 10° S 19:38:53 65° WSW 19:42:57 10° NNW
USA 161 2.8 19:37:01 10° N 19:39:13 32° WNW 19:41:14 10° SW
SMAP 3.9 19:34:40 10° S 19:39:16 58° WSW 19:43:53 10° NNW
GRACE-1 4.3 19:37:18 10° SSE 19:39:42 35° E 19:42:07 10° NNE
Resurs 01 Rocket 3.0 19:36:33 10° E 19:39:47 20° NE 19:43:03 10° N
Cosmos 1666 Rocket 3.8 19:37:34 10° N 19:41:46 44° ENE 19:45:56 10° SE
Cosmos 2112 Rocket 4.5 19:36:56 10° SW 19:42:10 64° NW 19:47:24 10° NNE
Cosmos 1315 Rocket 3.3 19:38:40 10° NNW 19:42:44 68° WSW 19:46:49 10° S
METEOR-M 4.1 19:38:35 10° SSE 19:43:57 84° ENE 19:49:20 10° NNW
Cosmos 1633 Rocket 3.5 19:41:06 10° N 19:45:20 42° ENE 19:49:33 10° SE
FREGAT/IRIS 3.6 19:43:30 10° ESE 19:46:05 27° ENE 19:48:41 10° N
Meteor 1-16 Rocket 4.3 19:44:07 10° SSW 19:49:29 81° WNW 19:55:02 10° NNE
YAOGAN 1 3.1 19:49:30 10° S 19:53:49 65° WSW 19:58:09 10° NNW
Cosmos 1242 Rocket 4.3 19:51:27 10° SW 19:54:52 35° WNW 19:58:21 10° N
Cosmos 1484 Rocket 4.3 19:52:04 10° SSW 19:55:34 38° W 19:59:07 10° NNW
NOSS 3-3 (A) 4.5 19:49:50 10° W 19:56:28 67° N 20:02:57 14° ENE
NOSS 3-3 (C) 4.5 19:49:56 10° W 19:56:33 67° N 20:03:03 14° ENE
Cosmos 1302 Rocket 4.1 19:51:38 10° NNW 19:56:49 60° NE 20:02:01 10° SE
FengYun 1-2 T 4.3 19:52:18 10° SE 19:57:37 53° ENE 20:02:58 10° NNW
Cosmos 2366 rocket 4.0 19:55:27 10° SSW 20:01:39 86° WNW 20:07:51 10° NNE
Cosmos 1908 3.3 19:58:06 10° S 20:01:55 55° E 20:05:44 10° NNE
CZ-4C R/B 3.3 19:58:01 10° S 20:02:31 26° ESE 20:06:12 15° ENE
USA 116 4.4 19:57:37 10° NNE 20:02:46 71° ESE 20:08:09 10° S
Iridium 4 Rocket 3.9 19:58:36 10° SSE 20:04:18 57° E 20:10:06 10° N
Cosmos 1408 4.5 20:03:24 10° NNE 20:05:34 15° NE 20:05:36 15° NE
Meteor 2-1 Rocket 4.3 20:01:34 10° S 20:07:27 77° ESE 20:13:25 10° NNE
Cosmos 44 Rocket 4.1 20:03:53 10° S 20:07:56 29° ESE 20:10:26 18° ENE
Lacrosse 5 rocket 1.7 20:04:08 10° W 20:08:31 62° S 20:11:24 19° ESE
Cosmos 2221 2.6 20:05:05 10° S 20:09:20 56° E 20:13:39 10° NNE
SJ-6B 3.0 20:08:21 10° SE 20:11:55 43° ENE 20:15:31 10° N
In-Cosmos 22 Rocket 4.2 20:06:15 10° NNW 20:11:59 70° ENE 20:17:47 10° SSE
SKYMED 2 3.7 20:07:43 10° NNE 20:11:59 50° E 20:16:13 10° S
H-2A R/B 2.9 20:08:29 10° SE 20:12:18 52° ENE 20:16:11 10° N
CZ-2C R/B 3.6 20:08:15 10° NNE 20:12:50 82° ESE 20:17:19 10° SSW
Cosmos 2237 Rocket 2.4 20:09:20 10° NW 20:15:03 75° SW 20:20:45 10° SSE
Cosmos 1110 Rocket 4.3 20:11:00 10° NW 20:16:20 71° WSW 20:21:36 10° SSE
Spot 2 Rocket 4.2 20:12:54 16° ESE 20:16:21 35° NE 20:20:57 10° N
SPOT 3 Rocket 4.0 20:13:34 10° S 20:18:46 66° WSW 20:24:00 10° NNW
Cosmos 1867 4.1 20:13:39 10° W 20:19:00 52° NNW 20:23:08 17° ENE
Cosmos 1992 Rocket 4.5 20:14:14 10° NNW 20:19:15 43° NE 20:22:28 20° ESE
USA 234 3.4 20:14:02 17° E 20:19:17 73° S 20:25:53 10° W
GP-B 3.9 20:15:05 10° N 20:19:27 56° W 20:23:49 10° SSW
Cosmos 1943 4.1 20:14:15 10° NW 20:19:29 35° NNE 20:22:43 20° ENE
Cosmos 1892 3.2 20:16:23 10° N 20:20:00 38° ENE 20:22:10 20° SE
Cosmos 1300 3.2 20:19:16 10° SSE 20:22:46 35° E 20:26:18 10° NNE
USA 32 4.2 20:22:48 10° N 20:27:56 50° ENE 20:33:03 10° SSE
SL-16 R/B 2.2 20:23:05 10° NW 20:28:49 78° NE 20:33:44 14° SE
Cosmos 1603 4.1 20:23:49 10° NW 20:29:19 47° NE 20:32:31 24° E
Cosmos 1842 Rocket 4.2 20:26:15 10° SSW 20:30:39 58° WNW 20:35:03 10° N
Cosmos 2227 Rocket 3.2 20:27:18 10° SSE 20:31:41 23° ESE 20:31:54 23° E
Cosmos 158 Rocket 3.9 20:26:45 10° SSW 20:31:51 65° ESE 20:37:09 10° NE
Cosmos 1934 Rocket 4.1 20:26:47 10° SSE 20:32:58 55° E 20:39:09 10° NNE
Genesis I 4.1 20:30:39 10° WNW 20:34:26 41° N 20:36:25 24° NE
Cosmos 2098 Rocket 3.8 20:28:57 10° S 20:34:27 72° E 20:41:17 10° NNE
Cosmos 1821 Rocket 3.9 20:30:45 10° S 20:36:55 70° E 20:43:15 10° NNE
ATLAS 5 CENTAUR R/B 2.3 20:31:37 10° WNW 20:36:56 65° NNE 20:40:17 26° E
Cosmos 1980 4.5 20:34:15 10° NW 20:39:45 53° WSW 20:45:13 10° SSE
ALOS 2.9 20:35:30 10° S 20:40:08 59° WSW 20:44:47 10° NNW
Cosmos 1470 Rocket 3.5 20:35:55 10° N 20:40:26 67° ENE 20:44:52 10° SSE
APEX 2.9 20:38:30 10° SSW 20:40:45 41° SSE 20:40:45 41° SSE
Cosmos 2239 Rocket 4.4 20:35:26 10° S 20:41:33 74° E 20:47:46 10° NNE
CZ-2D R/B 3.4 20:40:01 27° SE 20:41:54 53° ENE 20:45:44 10° N
USA 186 3.6 20:43:58 16° NNE 20:43:58 16° NNE 20:44:49 10° N
NOSS 2-1 (C) 4.3 20:38:37 10° WNW 20:43:08 58° N 20:46:15 26° ENE
NOSS 2-1 (D) 4.3 20:38:56 10° WNW 20:43:27 58° N 20:46:33 26° ENE
Cosmos 1048 Rocket 3.9 20:40:19 10° SSW 20:45:24 68° ESE 20:50:32 10° NE
H-2A R/B 3.6 20:44:49 19° NE 20:45:43 19° NE 20:49:27 10° N
Cosmos 1726 1.9 20:43:09 10° S 20:46:50 79° ESE 20:50:32 10° NNE
Cosmos 2082 Rocket 3.7 20:45:47 10° WNW 20:50:46 29° NNW 20:55:15 12° NE
MOS 1-B Rocket 4.0 20:44:53 10° SSE 20:50:48 75° ENE 20:57:39 10° NNW
Sich 1 3.8 20:46:53 10° NNW 20:51:10 54° W 20:55:27 10° S
Envisat 3.1 20:48:29 24° SE 20:51:27 56° ENE 20:56:26 10° NNW
FENGYUN 3A 4.4 20:46:09 10° S 20:51:28 55° W 20:56:50 10° NNW
Meteor 2-10 3.9 20:47:13 10° S 20:52:13 60° E 20:57:26 10° NNE
EO 1 Del DPAF 3.6 20:48:56 10° NNE 20:52:48 68° WNW 20:56:37 10° SSW
Meteor 2-3 Rocket 3.7 20:48:17 10° NNW 20:54:08 79° ENE 20:59:52 10° SSE
Aureole 1 Rocket 4.4 20:50:15 10° WSW 20:54:44 36° NW 20:58:17 10° NNE
Cosmos 2333 Rocket 3.8 20:49:45 10° NW 20:54:53 34° WSW 21:00:01 10° S
Cosmos 1825 3.4 20:51:30 10° N 20:54:02 27° NE 20:54:02 27° NE
HJ-1C 3.4 20:53:07 20° SSE 20:55:21 83° WSW 20:58:49 10° NNW
Cosmos 2251 Rocket 4.3 20:52:13 10° SSE 20:56:00 30° ESE 20:56:00 30° ESE
ERS-1 Rocket 4.1 20:56:33 25° ENE 20:56:55 26° NE 21:01:02 10° N
Cosmos 2123 Rocket 4.3 20:51:42 10° NNW 20:57:55 71° W 21:04:10 10° S
COSMO-SKYMED 1 2.8 20:55:47 10° NNE 21:00:08 71° WNW 21:04:28 10° SSW
Cosmos 2219 3.1 20:58:06 10° SSW 21:03:48 68° ESE 21:08:36 15° NE
Cosmos 1833 4.5 20:58:55 10° SW 21:04:33 67° NW 21:09:55 11° NE
Cosmos 2100 Rocket 4.5 21:05:28 34° E 21:05:52 34° E 21:11:20 10° NNE
Cosmos 44 3.0 21:02:19 10° SW 21:06:35 60° SE 21:07:20 51° E
Thor Agena Rocket 3.4 21:03:09 10° NNE 21:08:15 62° ESE 21:13:16 10° S
Cosmos 2297 Rocket 3.2 21:03:27 10° S 21:06:41 27° SE 21:06:41 27° SE
Cosmos 1833 Rocket 4.3 21:04:01 10° WNW 21:08:48 27° N 21:12:29 15° NE
Cosmos 1869 Rocket 4.0 21:05:33 10° N 21:09:30 42° ENE 21:09:30 42° ENE
NOSS 2-1 (E) 4.3 21:05:14 10° WNW 21:09:58 61° N 21:12:18 36° ENE
Cosmos 1605 Rocket 3.8 21:05:28 10° S 21:11:30 68° E 21:17:34 10° NNE
YAOGAN 6 3.8 21:13:43 31° NNE 21:13:43 31° NNE 21:16:08 10° N
ARGOS 4.0 21:13:20 31° ENE 21:13:40 31° NE 21:18:21 10° N
Resurs 01 Rocket 1.5 21:14:03 38° SSE 21:15:45 83° ENE 21:20:12 10° NNW
Resurs 1-3 3.5 21:14:31 42° SSE 21:15:59 81° ENE 21:20:25 10° NNW
Cosmos 1461 3.8 21:12:58 10° W 21:17:06 46° NNW 21:18:36 33° NE
FREGAT/IRIS 4.5 21:14:48 10° SSW 21:17:31 31° W 21:20:15 10° NNW
Lacrosse 4 Rocket 2.7 21:14:20 10° NW 21:18:11 29° NNE 21:18:50 28° NNE
Cosmos 1153 Rocket 4.5 21:12:34 10° S 21:18:36 57° E 21:24:43 10° NNE
Meteor 2-17 Rocket 4.4 21:19:15 10° S 21:25:11 56° E 21:31:10 10° NNE
Cosmos 1933 Rocket 4.0 21:23:18 10° NNW 21:27:37 60° W 21:30:37 19° S
Cosmos 1900 4.4 21:22:29 10° NW 21:27:41 73° NNE 21:28:37 58° E
Cosmos 2173 Rocket 4.3 21:28:36 42° ENE 21:28:36 42° ENE 21:33:55 10° NNE
Cosmos 1939 Rocket 2.9 21:29:19 67° NE 21:29:19 67° NE 21:33:14 10° NNW
GENESIS II 4.4 21:26:27 10° WSW 21:30:25 68° NNW 21:30:43 64° N
Cosmos 2228 Rocket 3.0 21:26:50 10° S 21:31:24 74° E 21:36:01 10° NNE
Cosmos 1328 Rocket 3.4 21:27:27 10° S 21:31:51 85° E 21:36:15 10° NNE
Helios 1A 4.1 21:35:53 33° NNE 21:35:53 33° NNE 21:38:37 10° N
NOAA 11 4.3 21:35:43 52° ENE 21:36:06 53° ENE 21:41:24 10° NNW
Cosmos 1408 3.7 21:37:36 10° NNW 21:40:02 38° N 21:40:02 38° N
COSMOS 2406 4.2 21:36:15 10° NW 21:41:27 33° NNE 21:42:36 30° NE
SPOT 5 4.0 21:43:45 32° NE 21:43:45 32° NE 21:47:44 10° N
Cosmos 1269 Rocket 4.4 21:38:38 10° SW 21:43:53 64° NW 21:49:11 10° NNE
Lacrosse 5 rocket 2.3 21:43:22 10° W 21:47:05 40° SW 21:47:05 40° SW
NOSS 3-3 (A) 4.3 21:41:11 10° WNW 21:48:06 74° NNE 21:50:23 48° E
NOSS 3-3 (C) 4.3 21:41:17 10° WNW 21:48:12 74° NNE 21:50:29 48° E
Cosmos 44 Rocket 3.1 21:44:22 10° SW 21:49:04 87° NW 21:49:10 85° N
CZ-4C R/B 2.2 21:44:31 10° SW 21:50:09 75° SE 21:51:24 57° E
MetOp-A 4.4 21:51:13 51° NE 21:51:13 51° NE 21:56:06 10° NNW
Meteor 2-2 Rocket 4.3 21:45:54 10° SSW 21:51:34 75° WNW 21:57:14 10° NNE
Cosmos 494 Rocket 3.8 21:49:38 10° SSW 21:54:46 87° ESE 21:55:16 74° NE
Spot 2 Rocket 3.9 21:53:07 35° S 21:55:08 61° WSW 22:00:13 10° NNW
Cosmos 1892 4.4 21:52:17 10° NNW 21:55:44 31° W 21:57:15 23° SW
Terra 3.7 21:58:15 19° NNE 21:58:15 19° NNE 22:00:24 10° N
Cosmos 1300 4.3 21:54:58 10° SW 21:58:30 35° WNW 22:02:04 10° N
Meteor 1-27 4.2 21:54:56 10° SSW 22:00:44 88° E 22:06:38 10° NNE
Cosmos 1992 Rocket 4.5 21:56:17 10° NW 22:01:25 56° WSW 22:02:38 45° SSW
USA 234 3.4 22:01:23 49° SSE 22:02:48 59° SSW 22:09:17 10° W
Cosmos 1867 3.9 21:58:00 10° WNW 22:03:23 53° NNE 22:03:47 52° NNE
SJ-11-01 4.4 22:03:26 72° WSW 22:03:35 73° WSW 22:08:23 10° NNW
Cosmos 1943 3.0 21:58:34 10° NW 22:04:18 82° NE 22:04:31 80° E
Cosmos 2061 Rocket 4.0 22:11:47 62° ENE 22:11:47 62° ENE 22:17:16 10° NNE
SL-16 R/B 3.7 22:07:36 10° NW 22:12:33 32° WSW 22:15:39 19° SSW
Cosmos 1603 3.9 22:08:05 10° NW 22:13:44 63° WSW 22:14:24 58° SSW
Cosmos 1459 Rocket 3.9 22:13:14 71° SSE 22:13:49 78° E 22:20:15 10° NNE
Cosmos 2227 Rocket 2.4 22:09:21 10° SSW 22:13:48 57° SSW 22:13:48 57° SSW
SL-19 R/B 4.4 22:14:22 70° SSE 22:15:09 87° WSW 22:21:03 10° NNW
Geosat 4.2 22:18:30 68° WSW 22:18:30 68° WSW 22:23:23 10° NW
ATLAS 5 CENTAUR R/B 2.3 22:16:20 10° WNW 22:21:50 72° SW 22:21:50 72° SW
H-2A R/B 2.8 22:25:27 46° NNE 22:25:27 46° NNE 22:29:34 10° NNW
Cosmos 1802 Rocket 4.0 22:29:15 71° NE 22:29:15 71° NE 22:34:50 10° NNE
Cosmos 1825 4.3 22:27:01 10° NNW 22:28:56 25° NW 22:28:56 25° NW
Envisat 4.4 22:28:41 25° SW 22:30:45 35° W 22:35:26 10° NNW
NOSS 2-1 (C) 4.3 22:29:07 10° WNW 22:33:36 74° WNW 22:33:36 74° WNW
NOSS 2-1 (D) 4.3 22:29:25 10° WNW 22:33:54 73° WNW 22:33:54 73° WNW
ERS-1 Rocket 3.6 22:36:33 51° NNW 22:36:33 51° NNW 22:40:20 10° NNW
Cosmos 2082 Rocket 3.6 22:31:34 10° NW 22:36:31 28° NNE 22:37:05 28° NNE
SME Rocket 4.5 22:41:23 69° SE 22:42:30 83° ENE 22:48:46 10° NNW
Cosmos 2016 Rocket 4.2 22:46:11 63° NNE 22:46:11 63° NNE 22:51:27 10° NNE
Cosmos 2219 4.2 22:42:49 10° WSW 22:48:20 45° NW 22:50:31 31° NNE
Cosmos 2100 Rocket 4.2 22:50:08 59° WSW 22:51:01 66° WNW 22:57:12 10° N
Tsikada Rocket 4.2 22:45:15 10° NNW 22:51:32 67° W 22:51:38 67° WSW
Cosmos 2297 Rocket 3.8 22:46:26 10° SW 22:48:35 24° SW 22:48:35 24° SW
Resurs 01 Rocket 3.9 22:51:37 18° WSW 22:52:49 20° W 22:56:05 10° NW
ARGOS 3.8 22:54:51 53° NW 22:54:51 53° NW 22:59:01 10° NNW
Cosmos 1833 Rocket 4.1 22:49:26 10° NW 22:54:10 29° NNE 22:54:10 29° NNE
Lacrosse 4 Rocket 3.6 22:53:19 10° NW 22:55:09 24° NW 22:55:09 24° NW
SPOT 5 4.5 23:23:00 35° NNW 23:23:00 35° NNW 23:26:06 10° NNW
COSMOS 2406 4.3 23:20:53 10° NW 23:24:39 41° NNW 23:24:39 41° NNW
Terra 4.0 23:37:09 21° NNW 23:37:09 21° NNW 23:38:45 10° NNW
CZ-4C R/B 3.5 23:33:01 10° W 23:36:36 39° WNW 23:36:36 39° WNW
